Sauk Centre, MN

10:50 AM CST on December 12, 2019 (GMT -0600)
Sauk Centre

Weather History for KD39 - September, 2019

Change the Weather History Date:

Saturday, September 21, 2019

  Actual Average (WUND) Record (WUND)
Temperature  
Mean Temperature 71 °F -  
Max Temperature 80 °F - - (-1)
Min Temperature 60 °F - - (-1)
Cooling Degree Days 6    
Growing Degree Days 21 (Base 50)    
Moisture  
Dew Point 65 °F    
Average Humidity 84    
Maximum Humidity 100    
Minimum Humidity 57    
Precipitation  
Precipitation 0.35 in - - ()
Sea Level Pressure  
Sea Level Pressure 29.75 in    
Wind  
Wind Speed 10 mph ()    
Max Wind Speed 17 mph    
Max Gust Speed 26 mph    
Visibility 9.7 miles    
Events Rain , Thunderstorm    
Averages and records for this station are not official NWS values.
T = Trace of Precipitation, MM = Missing Value Source: Averaged Metar Reports

Daily Weather History Graph

Daily Weather History Graph

Search for Another Location

Airport or City:

Astronomy

Sep. 21, 2019 Rise Set
Actual Time 7:05 AM CDT 7:19 PM CDT
Civil Twilight 6:35 AM CDT 7:49 PM CDT
Nautical Twilight 6:00 AM CDT 8:24 PM CDT
Astronomical Twilight 5:24 AM CDT 8:59 PM CDT
Moon 11:38 PM CDT (9/21) 2:32 PM CDT (9/21)
Length of Visible Light 13h 13m
Length of Day
12h 14m
Waning Gibbous, 54% of the Moon is Illuminated
Sep 21
Waning Gibbous
Sep 21
Last Quarter
Sep 28
New
Oct 5
First Quarter
Oct 13
Full

Hourly Weather History & Observations

Time (CDT) Temp. Heat Index Dew Point Humidity Pressure Visibility Wind Dir Wind Speed Gust Speed Precip Events Conditions
12:59 AM 71.6 °F - 68.0 °F 88% 29.85 in 10.0 mi SSE 10.4 mph - N/A   Clear
1:59 AM 71.6 °F - 68.0 °F 88% 29.84 in 10.0 mi SSE 11.5 mph - N/A   Mostly Cloudy
2:59 AM 69.8 °F - 68.0 °F 94% 29.81 in 10.0 mi SSE 10.4 mph - N/A   Overcast
3:59 AM 69.8 °F - 68.0 °F 94% 29.78 in 10.0 mi SSE 9.2 mph - 0.09 in Rain , Thunderstorm Light Thunderstorms and Rain
4:59 AM 68.0 °F - 68.0 °F 100% 29.75 in 10.0 mi SSE 9.2 mph - 0.04 in   Overcast
5:59 AM 68.0 °F - 68.0 °F 100% 29.75 in 10.0 mi South 10.4 mph - N/A   Overcast
6:59 AM 69.8 °F - 66.2 °F 88% 29.75 in 10.0 mi South 8.1 mph - N/A   Overcast
7:59 AM 68.0 °F - 68.0 °F 100% 29.75 in 3.0 mi South 9.2 mph - 0.05 in   Overcast
8:59 AM 68.0 °F - 68.0 °F 100% 29.71 in 10.0 mi South 17.3 mph 26.5 mph 0.17 in Rain , Thunderstorm Light Thunderstorms and Rain
9:59 AM 68.0 °F - 68.0 °F 100% 29.71 in 10.0 mi South 8.1 mph - N/A Thunderstorm Overcast
10:59 AM 71.6 °F - 68.0 °F 88% 29.70 in 10.0 mi South 16.1 mph 21.9 mph N/A   Overcast
11:59 AM 71.6 °F - 68.0 °F 88% 29.70 in 10.0 mi South 13.8 mph 17.3 mph N/A   Overcast
12:59 PM 75.2 °F - 71.6 °F 89% 29.70 in 10.0 mi SSE 9.2 mph - N/A   Overcast
1:59 PM 77.0 °F - 71.6 °F 83% 29.69 in 10.0 mi SSW 11.5 mph 17.3 mph N/A   Scattered Clouds
2:59 PM 78.8 °F - 68.0 °F 69% 29.68 in 10.0 mi West 11.5 mph 18.4 mph N/A   Mostly Cloudy
3:59 PM 80.6 °F 82.7 °F 66.2 °F 61% 29.68 in 10.0 mi WSW 13.8 mph 20.7 mph N/A   Clear
4:59 PM 78.8 °F - 62.6 °F 57% 29.70 in 10.0 mi WSW 16.1 mph 23.0 mph N/A   Scattered Clouds
5:59 PM 77.0 °F - 62.6 °F 61% 29.71 in 10.0 mi WSW 11.5 mph 17.3 mph N/A   Clear
6:59 PM 71.6 °F - 62.6 °F 73% 29.73 in 10.0 mi WSW 8.1 mph - N/A   Clear
7:59 PM 68.0 °F - 60.8 °F 78% 29.76 in 10.0 mi SW 5.8 mph - N/A   Clear
8:59 PM 66.2 °F - 59.0 °F 78% 29.79 in 10.0 mi West 10.4 mph 18.4 mph N/A   Clear
9:59 PM 64.4 °F - 57.2 °F 77% 29.79 in 10.0 mi West 10.4 mph - N/A   Clear
10:59 PM 62.6 °F - 57.2 °F 82% 29.80 in 10.0 mi West 9.2 mph - N/A   Clear
11:59 PM 60.8 °F - 55.4 °F 82% 29.83 in 10.0 mi WSW 6.9 mph - N/A   Clear